This is the latest recevied weather packets stored in our database for station/object N7CW. If no packets are shown the sender has not sent any weather packets the latest 10 day(s).
| Time | Temp. | Humidity | Pressure | Rain* | Wind** | Luminosity | Snow |
|---|---|---|---|---|---|---|---|
| 1777926409 | 15.56° C | 41% | 1014.6 hPa | 0 mm | - | 571 W/m² | - |
| 1777926106 | 15° C | 39% | 1015.1 hPa | 0 mm | - | 618 W/m² | - |
| 1777925803 | 15.56° C | 44% | 1015.1 hPa | 0 mm | - | 497 W/m² | - |
| 1777925501 | 15.56° C | 44% | 1015.1 hPa | 0 mm | - | 784 W/m² | - |
| 1777925197 | 15.56° C | 46% | 1014.8 hPa | 0 mm | - | 687 W/m² | - |
| 1777924894 | 15.56° C | 43% | 1014.8 hPa | 0 mm | - | 563 W/m² | - |
| 1777924590 | 15° C | 45% | 1015.3 hPa | 0 mm | - | 572 W/m² | - |
| 1777924286 | 15.56° C | 44% | 1015.2 hPa | 0 mm | - | 460 W/m² | - |
| 1777923983 | 15° C | 49% | 1015.1 hPa | 0 mm | - | 504 W/m² | - |
| 1777923679 | 15° C | 50% | 1015.2 hPa | 0 mm | - | 511 W/m² | - |
| 1777923375 | 15° C | 48% | 1014.9 hPa | 0 mm | - | 494 W/m² | - |
| 1777923074 | 16.11° C | 47% | 1015.1 hPa | 0 mm | - | 540 W/m² | - |
| 1777922772 | 16.11° C | 47% | 1015.2 hPa | 0 mm | - | 457 W/m² | - |
| 1777922470 | 15.56° C | 43% | 1015.1 hPa | 0 mm | - | 403 W/m² | - |
| 1777922168 | 15° C | 48% | 1014.9 hPa | 0 mm | - | 557 W/m² | - |
| 1777921864 | 15.56° C | 44% | 1015.2 hPa | 0 mm | - | 682 W/m² | - |
| 1777921560 | 16.11° C | 45% | 1015.2 hPa | 0 mm | - | 742 W/m² | - |
| 1777921256 | 15.56° C | 46% | 1015.3 hPa | 0 mm | - | 689 W/m² | - |
| 1777920953 | 15.56° C | 45% | 1015.3 hPa | 0 mm | - | 580 W/m² | - |
| 1777920650 | 15° C | 47% | 1015.3 hPa | 0 mm | - | 712 W/m² | - |
| 1777920345 | 15° C | 45% | 1015.2 hPa | 0 mm | - | 850 W/m² | - |
| 1777920040 | 14.44° C | 46% | 1015.4 hPa | 0 mm | - | 881 W/m² | - |
| 1777919738 | 15.56° C | 43% | 1015.2 hPa | 0 mm | - | 662 W/m² | - |
| 1777919436 | 15.56° C | 44% | 1015.2 hPa | 0 mm | - | 415 W/m² | - |
| 1777919133 | 15.56° C | 45% | 1015.3 hPa | 0 mm | - | 351 W/m² | - |
* Rain latest hour (hover to see other rain measurements)
** Current wind speed in m/s (hover to see current wind gust speed)